Regional Weather Roundup
Issued by NWS

Home | Current Version | Previous Version | Text Only | Print | Product List | Glossary Off
Versions: 1 2 3 4 5 6 7 8 9 10 11 12 13 14 15 16 17 18 19 20 21 22 23 24 25 26 27 28 29 30 31 32 33 34 35 36 37 38 39 40 41 42 43 44 45 46 47 48 49 50

843
ASUS44 KLIX 211210
RWRLA
LOUISIANA WEATHER ROUNDUP
NATIONAL WEATHER SERVICE NEW ORLEANS LA
700 AM CDT THU AUG 21 2014

NOTE: "FAIR" INDICATES FEW OR NO CLOUDS BELOW 12,000 FEET WITH NO
      SIGNIFICANT WEATHER AND/OR OBSTRUCTIONS TO VISIBILITY.
      SKY/WX - SKY CONDITION AND SIGNIFICANT WEATHER.
      TMP - AIR TEMPERATURE.    DP   - DEWPOINT TEMPERATURE.
      RH  - RELATIVE HUMIDITY.  PRES - PRESSURE.
      HX  - HEAT INDEX.         WCI  - WIND CHILL INDEX.

*  THESE STATIONS ARE NOT NWS OR FAA STATIONS AND ARE NOT UNDER
   NWS QUALITY CONTROL.

LAZ040-048-061>063-065-066-069-211300-
SOUTHEAST LOUISIANA

CITY           SKY/WX    TMP DP  RH WIND       PRES   REMARKS
N.O. AUDUBON     N/A     79  78  99 MISG        N/A
6HR MIN TEMP:  78; 6HR MAX TEMP:  81;

N.O. INTL ARPT MOCLDY    77  74  90 CALM      30.12R
6HR MIN TEMP:  77; 6HR MAX TEMP:  79;

N.O. LAKEFRONT CLEAR     79  76  90 CALM      30.12R
6HR MIN TEMP:  79; 6HR MAX TEMP:  80;

N.O. DOWNTOWN* FAIR      82  73  74 CALM      30.12R
6HR MIN TEMP:  81; 6HR MAX TEMP:  82;

SLIDELL        PTCLDY    74  71  91 CALM      30.12R
6HR MIN TEMP:  73; 6HR MAX TEMP:  76;

BATON ROUGE    PTCLDY    74  72  93 NE3       30.12R
6HR MIN TEMP:  74; 6HR MAX TEMP:  75;

BOOTHVILLE     MOCLDY    83  76  79 CALM      30.13R
6HR MIN TEMP:  82; 6HR MAX TEMP:  84;

BELLE CHASSE   PTCLDY    75  72  90 CALM      30.11R
6HR MIN TEMP:  74; 6HR MAX TEMP:  77;

BOGALUSA*      CLOUDY    74  70  89 CALM      30.14R
6HR MIN TEMP:  73; 6HR MAX TEMP:  76;

GALLIANO*      NOT AVBL
NEW ROADS*     FAIR      75  74  97 CALM      30.11R
6HR MIN TEMP:  74; 6HR MAX TEMP:  77;

GONZALES*      FAIR      73  73  99 CALM      30.11R
6HR MIN TEMP:  72; 6HR MAX TEMP:  74;

HAMMOND*       PTCLDY    73  70  88 CALM      30.14R
HOUMA*         PTCLDY    73  72  94 CALM      30.11R
PORT FOURCHON* SUNNY     84  77  79 CALM      30.13R

$$

LAZ041-044-053-054-211300-
SOUTHWEST LOUISIANA

CITY           SKY/WX    TMP DP  RH WIND       PRES   REMARKS
LAKE CHARLES   NOT AVBL
LAFAYETTE      MOCLDY    76  74  93 CALM      30.10R
6HR MIN TEMP:  76; 6HR MAX TEMP:  79;

PATTERSON      CLEAR    N/A N/A N/A MISG        N/A
SALT POINT       N/A     85  79  82 CALM      30.09R HX  98
6HR MIN TEMP:  83; 6HR MAX TEMP:  87; 6HR PCP:  0.02;

NEW IBERIA     PTCLDY    77  75  93 E3        30.11R
6HR MIN TEMP:  76; 6HR MAX TEMP:  79;

CHENAULT AIRPK NOT AVBL

$$

LAZ027-028-211300-
CENTRAL LOUISIANA

CITY           SKY/WX    TMP DP  RH WIND       PRES   REMARKS
FORT POLK      MOCLDY    76  75  97 CALM      30.09R
6HR MIN TEMP:  74; 6HR MAX TEMP:  76;

ALEXANDRIA INT CLOUDY    77  75  93 E6        30.08R
6HR MIN TEMP:  74; 6HR MAX TEMP:  77;

ALEXANDRIA     CLOUDY    75  73  93 CALM      30.10R
6HR MIN TEMP:  73; 6HR MAX TEMP:  76;


$$

LAZ001-002-211300-
NORTHWEST LOUISIANA

CITY           SKY/WX    TMP DP  RH WIND       PRES   REMARKS
SHREVEPORT     MOCLDY    76  74  93 S5        30.07R
6HR MIN TEMP:  75; 6HR MAX TEMP:  77;

BARKSDALE AFB  MOCLDY    74  74  99 SE6       30.08R
6HR MIN TEMP:  73; 6HR MAX TEMP:  76;

DTN SHREVEPORT MOCLDY    76  73  91 S5        30.08R
6HR MIN TEMP:  76; 6HR MAX TEMP:  76;


$$

LAZ014-016-211300-
NORTHEAST LOUISIANA

CITY           SKY/WX    TMP DP  RH WIND       PRES   REMARKS
MONROE         MOCLDY    74  71  91 CALM      30.12R
6HR MIN TEMP:  72; 6HR MAX TEMP:  75;

TALLULAH       PTCLDY    73  71  93 CALM      30.12R
6HR MIN TEMP:  70; 6HR MAX TEMP:  76;


$$




USA.gov is the U.S. government's official web portal to all federal, state and local government web resources and services.